Theta_e
337 332 348 348 347 346 346 346 346 347 349 349 348 349 348 348 347 347 345 344 343 344 341 340 340 339 339 339 337 336 337 338 338 338 340 339 340 340 339 339 338 335 339
341 344 345 346 346 345 346 345 345 345 346 348 348 347 347 347 346 344 343 344 344 343 340 339 338 337 337 337 337 337 337 337 336 337 337 336 336 336 337 336 337 334 337
341 342 339 345 346 346 345 346 346 346 348 348 347 347 346 346 344 343 343 343 343 343 340 340 339 339 338 336 337 337 336 335 335 332 333 326 326 333 333 331 333 332 333
341 340 340 344 345 345 345 346 346 348 348 347 346 346 345 344 343 344 343 342 343 343 340 341 341 339 337 337 337 335 334 332 331 331 329 330 329 334 333 331 330 329 330
339 338 340 342 341 343 344 345 346 347 346 346 346 345 345 344 344 343 342 342 343 342 340 340 340 338 337 336 335 334 331 330 328 323 323 325 325 329 329 327 327 327 327
332 337 340 339 340 340 341 343 344 345 344 344 344 344 343 342 343 343 341 341 341 337 335 335 337 338 336 334 334 331 330 328 324 318 321 324 322 328 328 327 325 326 325
330 334 337 338 338 339 339 339 341 343 343 343 343 342 341 341 341 341 340 338 336 336 336 338 337 336 334 333 331 330 328 325 318 317 317 319 322 328 327 327 326 325 325
329 330 334 338 338 337 334 334 337 338 341 341 341 341 340 339 339 339 337 335 336 339 339 338 336 334 333 332 330 329 328 325 319 318 318 320 327 326 326 325 324 323 323
331 328 328 333 336 335 332 332 333 337 339 340 340 340 339 337 337 337 334 334 335 337 336 335 333 332 332 330 329 327 326 324 316 318 319 320 327 325 325 324 324 322 322
330 332 329 332 331 329 329 329 330 334 336 339 339 339 337 336 335 332 331 331 332 332 334 334 332 332 331 329 327 327 326 323 316 317 318 322 326 325 325 324 323 322 321
327 328 332 331 326 324 324 327 329 329 336 338 338 337 332 328 326 323 328 330 329 328 330 332 332 330 329 328 328 326 321 316 316 317 319 327 326 326 324 323 322 321 320
322 325 327 329 327 325 327 323 322 326 332 336 335 331 328 325 322 323 327 327 327 327 328 331 331 329 324 321 322 321 316 316 316 317 320 327 326 325 324 322 321 320 319
322 322 323 323 322 323 324 325 325 327 329 331 329 328 324 323 323 320 320 319 318 319 315 318 316 314 313 315 313 314 315 316 316 318 324 327 326 325 324 322 320 319 318
320 321 322 320 319 321 323 325 324 325 325 327 326 325 323 322 319 317 315 313 310 309 309 309 308 308 310 312 313 313 313 314 315 318 323 327 327 326 324 323 321 319 318
319 321 323 321 320 319 320 322 323 323 324 325 324 324 321 320 318 315 313 311 309 309 310 307 306 306 307 308 311 311 312 312 314 315 318 326 327 326 326 324 323 320 319
320 320 322 322 321 321 320 321 321 323 324 324 323 320 321 318 316 314 311 310 308 309 310 308 307 305 305 307 307 308 309 309 310 312 314 321 324 326 327 324 323 322 320
317 321 320 320 323 321 321 322 322 323 322 323 321 318 318 318 315 314 311 309 308 309 310 308 306 304 302 305 305 306 306 307 307 309 313 315 320 323 325 326 323 321 320
316 318 321 322 321 321 321 320 321 322 322 323 320 319 318 317 316 313 312 310 309 309 311 309 307 303 302 302 302 304 305 306 307 308 312 315 317 318 322 324 324 322 320
316 316 318 320 320 319 319 319 318 317 321 319 320 319 318 317 317 315 313 312 311 311 312 310 307 306 303 301 301 301 302 304 304 308 309 311 313 315 315 321 321 321 321
315 316 318 319 319 318 319 318 316 315 312 317 318 320 320 319 319 317 316 314 314 312 312 311 307 306 305 302 302 300 298 299 301 304 306 309 309 311 311 313 315 314 318
314 315 316 316 318 318 317 315 315 315 312 311 313 317 320 320 320 319 318 317 316 313 312 310 306 305 302 301 299 299 299 299 299 299 302 304 307 308 307 308 309 308 312
313 314 314 315 316 317 318 318 315 316 312 311 312 315 318 319 320 320 316 316 314 312 310 308 307 303 303 301 299 297 296 297 299 299 298 301 303 306 306 306 306 306 305
311 313 313 315 315 317 318 316 311 312 311 310 310 312 314 317 318 318 317 316 315 313 310 308 306 304 301 300 300 300 296 296 299 300 299 299 299 300 304 305 304 304 302
310 312 313 314 315 315 316 314 313 313 313 313 310 310 312 315 315 317 318 316 315 313 311 310 308 304 302 300 300 302 303 303 297 297 298 299 299 299 300 302 302 302 300
309 309 309 312 314 315 313 313 311 310 312 310 307 308 309 311 314 316 317 316 314 314 313 311 308 305 304 303 304 304 304 303 302 300 297 297 298 299 300 299 301 301 299
307 307 308 309 310 312 311 310 310 310 309 308 307 308 309 310 311 314 316 316 315 314 313 312 310 308 309 308 307 307 305 303 301 299 298 298 298 299 300 299 299 299 299
Wind_Speed
9 9 13 18 18 16 18 20 25 27 23 22 22 22 22 21 20 20 22 24 23 23 26 26 25 26 25 25 25 24 23 21 21 21 22 23 24 25 25 24 22 18 25
10 11 13 18 17 14 17 19 24 31 25 21 21 21 21 21 20 21 23 24 24 25 26 27 26 26 25 24 24 23 22 21 21 21 22 23 23 24 24 24 22 21 24
14 13 12 16 18 15 13 13 23 25 27 22 22 21 21 21 20 21 23 23 24 25 26 27 27 26 25 24 22 21 22 20 20 21 20 11 13 24 24 22 22 23 24
11 11 13 17 18 16 15 14 20 24 25 23 22 21 21 20 21 21 23 24 24 24 26 26 25 24 24 22 21 21 21 20 20 18 10 12 14 24 24 23 23 22 23
11 10 10 18 19 17 15 14 16 20 25 21 21 21 20 20 21 23 23 24 23 23 23 22 21 22 22 20 21 21 21 20 20 13 12 12 12 19 23 22 20 22 23
3 8 13 16 20 20 17 13 15 19 23 22 20 20 20 20 21 22 23 23 22 22 22 22 22 24 21 20 21 21 21 21 17 9 9 14 13 22 22 22 21 21 22
4 5 10 16 20 20 19 16 14 14 19 22 19 21 20 19 20 22 22 21 20 18 20 24 25 24 22 21 21 21 19 19 10 8 8 8 12 23 22 22 22 22 22
6 4 8 18 19 19 20 17 11 15 17 27 20 19 20 19 19 21 21 20 18 18 24 24 23 22 21 21 21 19 18 17 10 9 7 9 20 22 22 22 21 21 22
5 8 5 10 14 21 20 19 16 20 21 21 20 17 18 16 19 21 21 21 20 21 23 23 22 22 21 21 19 18 17 17 7 6 7 7 21 21 21 21 21 21 21
4 5 10 11 14 14 14 22 16 18 24 24 18 15 14 16 18 20 20 20 20 21 21 21 21 20 20 19 18 17 16 15 6 5 4 9 20 21 20 20 20 20 20
3 5 10 12 14 14 15 15 17 11 23 21 17 14 11 6 8 9 17 20 19 18 19 19 20 19 18 17 17 16 13 4 5 3 2 17 18 20 19 20 19 18 18
4 5 5 11 11 15 12 15 11 10 8 12 12 9 6 6 6 8 14 19 17 16 18 20 20 20 12 6 6 12 4 5 4 3 3 15 17 18 18 18 17 16 16
4 6 8 9 11 10 10 10 6 6 12 10 10 9 5 5 4 4 5 6 6 11 6 10 9 6 8 6 5 4 5 4 3 2 5 13 15 17 16 16 14 15 14
6 8 7 11 12 11 7 7 7 4 4 5 7 9 5 4 5 4 5 4 5 3 7 5 4 6 6 5 7 6 5 4 3 2 4 11 12 15 15 15 14 14 13
8 7 9 12 11 11 11 7 7 5 5 4 6 8 4 5 6 5 4 4 4 4 7 6 5 6 6 6 5 6 5 5 4 2 2 9 10 13 15 15 15 14 14
7 9 9 11 12 12 10 11 8 6 4 4 3 6 7 5 6 6 4 5 4 3 4 6 6 5 5 5 5 5 5 4 4 4 3 3 6 8 12 13 12 12 13
3 8 9 11 13 13 10 8 5 6 7 5 4 6 6 6 7 7 5 5 4 4 7 6 5 5 5 3 5 4 4 4 3 4 3 3 3 6 8 10 11 11 11
5 3 9 8 8 9 9 7 5 7 10 8 4 4 7 6 5 5 6 4 5 4 4 5 5 4 4 4 4 3 3 3 3 4 4 3 3 3 5 9 11 11 11
6 8 6 9 9 8 6 6 7 6 8 6 4 4 5 6 6 6 5 4 6 4 4 5 3 3 4 3 4 3 3 3 4 3 4 4 4 4 3 7 10 10 11
7 7 6 8 10 8 4 6 4 5 3 6 4 4 6 5 6 5 3 5 5 4 4 4 5 2 3 3 3 2 0 2 3 3 4 3 4 5 4 5 4 5 11
8 8 9 8 10 9 5 4 5 5 3 2 3 4 7 6 6 5 4 4 5 5 5 5 4 5 2 4 4 1 2 4 5 4 4 4 4 4 4 4 3 3 4
10 9 9 10 9 9 6 4 3 4 3 4 3 4 5 6 6 4 4 6 5 4 6 6 5 3 2 4 4 3 2 3 3 5 4 4 6 3 4 5 4 5 5
11 12 11 11 12 10 10 5 3 4 2 3 3 3 5 4 5 6 6 5 6 5 5 6 6 7 5 4 4 5 2 5 1 1 5 5 5 4 5 6 7 7 7
13 10 11 11 13 11 13 10 11 10 12 9 6 5 6 7 7 7 7 6 6 5 6 6 6 5 5 6 1 5 3 3 4 1 2 3 5 7 7 6 8 7 7
14 12 10 12 13 14 12 12 10 9 8 4 3 5 5 6 7 7 7 6 6 6 7 7 6 7 4 4 4 3 2 2 0 3 3 3 2 4 5 5 5 5 7
12 12 12 13 13 13 12 11 13 14 10 8 6 6 5 4 5 7 7 7 6 6 6 7 7 7 9 5 4 4 5 5 5 4 3 3 3 3 4 5 6 7 6
Wind_Direction
167 181 144 134 136 135 121 121 116 115 130 134 135 133 130 128 128 125 120 120 119 116 116 114 112 111 107 104 101 99 96 91 88 86 84 83 81 78 75 75 72 72 74
152 156 142 138 136 137 131 132 125 126 130 134 133 132 130 132 133 129 125 122 121 119 117 116 113 110 107 106 103 100 98 97 92 86 83 85 85 83 78 75 72 74 72
150 147 144 127 126 135 131 133 128 127 127 136 134 135 132 135 133 130 126 121 119 118 119 116 112 109 108 106 102 98 93 90 92 94 90 91 84 85 81 76 73 72 72
145 143 144 130 124 122 125 129 133 133 130 135 133 135 134 135 135 133 126 122 121 123 124 121 117 103 109 106 103 100 97 89 86 84 82 87 87 84 84 84 81 80 76
143 126 151 133 128 123 121 129 133 132 130 135 136 137 136 139 140 134 129 126 127 127 126 125 118 112 111 107 105 104 99 93 85 72 81 79 82 88 87 80 81 85 83
103 132 143 137 132 131 127 129 134 139 134 136 138 135 138 144 141 134 129 126 126 127 128 123 122 120 114 111 109 107 101 96 88 83 82 95 97 93 94 92 89 85 84
160 152 147 149 140 139 135 133 137 147 141 130 139 139 145 142 139 133 127 123 121 124 126 124 120 119 120 117 113 110 105 101 96 90 87 90 99 95 95 94 93 90 87
168 186 177 156 143 140 139 138 151 167 155 131 143 145 142 141 135 128 123 118 113 120 125 124 123 121 120 118 117 113 111 107 96 95 92 99 102 102 100 96 94 91 87
205 192 179 162 162 144 146 155 176 170 157 131 140 144 138 135 127 125 121 117 117 121 122 125 125 124 123 122 119 114 110 109 98 101 101 101 106 105 103 101 99 95 93
109 164 176 149 141 143 151 157 186 194 161 129 140 133 131 130 129 124 122 119 117 121 123 126 127 126 124 122 120 118 115 111 103 105 104 118 114 109 108 105 103 103 101
42 90 139 148 149 146 157 175 171 177 155 131 128 127 120 117 119 121 125 120 118 117 118 130 131 124 122 120 121 117 111 99 98 99 106 114 115 112 111 109 106 104 103
101 93 122 135 147 156 173 163 159 176 179 144 136 127 122 126 130 133 123 123 119 108 110 119 124 124 115 120 120 115 114 111 109 128 123 123 121 118 117 117 115 111 111
112 113 114 121 125 153 156 154 173 173 176 141 128 135 128 126 111 103 111 116 120 106 102 112 117 119 124 126 115 114 113 118 128 127 135 132 130 125 125 123 120 121 118
119 123 112 123 131 133 129 134 134 130 157 161 140 131 137 128 125 117 112 127 108 118 113 105 106 109 99 106 124 125 131 138 139 155 150 145 137 134 135 132 135 132 127
148 139 137 132 130 144 143 146 141 141 160 142 146 137 137 151 146 125 128 118 114 132 116 111 111 111 119 123 115 127 144 154 155 151 137 144 151 152 151 149 150 148 143
155 162 148 142 143 153 160 159 163 161 164 111 141 139 153 155 145 133 136 123 131 144 127 128 131 126 133 130 133 154 152 153 158 153 151 153 164 171 169 160 159 160 154
110 162 161 151 149 159 158 153 158 158 162 196 169 147 143 149 155 145 146 146 162 145 125 109 101 102 109 126 145 148 142 148 166 154 148 157 192 185 188 176 169 172 166
129 152 160 157 132 135 137 116 133 160 174 189 141 157 156 145 147 150 156 160 153 133 135 122 126 122 142 152 148 153 162 156 146 174 163 156 164 180 199 187 180 179 178
157 155 162 156 156 128 123 118 124 138 176 141 135 140 153 147 158 164 164 166 152 131 135 135 124 128 150 141 150 166 163 174 181 190 183 179 184 195 193 204 184 177 183
158 158 155 159 150 139 120 134 119 116 93 128 129 157 158 164 173 161 155 169 131 142 142 146 147 133 155 145 113 114 189 218 204 207 216 205 204 208 197 196 177 182 181
158 165 164 151 156 160 155 153 146 150 123 93 116 183 153 170 175 171 183 163 144 170 201 157 131 164 135 160 110 48 262 232 224 211 208 214 215 223 215 206 189 185 201
170 173 169 166 153 167 169 178 125 134 117 119 133 199 204 180 163 178 180 185 178 167 179 171 160 136 126 176 136 92 259 290 258 220 209 207 215 197 213 223 212 203 206
183 178 175 178 172 176 186 166 103 88 70 102 186 200 227 188 180 198 206 192 185 175 191 183 170 170 173 202 201 145 150 226 196 152 225 208 199 197 212 213 214 212 209
194 181 178 176 178 183 185 183 184 191 196 200 183 177 188 199 198 187 207 204 187 183 195 193 183 177 146 177 233 233 267 162 178 288 301 237 205 218 203 208 213 206 205
186 186 180 184 188 186 184 188 190 193 207 203 198 204 210 194 206 192 202 198 189 193 202 188 171 191 185 157 184 154 163 235 135 137 234 189 220 227 213 210 222 220 214
168 178 186 190 192 193 187 191 196 202 201 217 223 226 231 201 201 202 201 200 200 204 200 199 197 189 207 213 204 201 178 179 200 163 189 204 191 196 218 193 205 218 216